| time (UTC) | temp C | wind direction | speed KPH | gust KPH | rain 1hr cm | rain 24hr cm | rain mn cm | humidity % | barometer mb |
| 20260508024519 | 7 | 12 | 0.0 | 0.0 | 0.00 | 0.05 | 0.05 | 74 | 1008.8 |
| 20260508023010 | 7 | 12 | 0.0 | 0.0 | 0.00 | 0.05 | 0.05 | 73 | 1009.0 |
| 20260508021506 | 8 | 12 | 0.0 | 0.0 | 0.00 | 0.05 | 0.05 | 71 | 1009.1 |
| 20260508020007 | 8 | 12 | 0.0 | 0.0 | 0.00 | 0.05 | 0.05 | 70 | 1008.9 |
| 20260508014506 | 8 | 12 | 0.0 | 0.0 | 0.00 | 0.05 | 0.05 | 68 | 1008.8 |
| 20260508013006 | 8 | 12 | 0.0 | 0.0 | 0.00 | 0.05 | 0.05 | 67 | 1008.8 |
| 20260508011505 | 8 | 12 | 0.0 | 0.0 | 0.00 | 0.05 | 0.05 | 66 | 1008.8 |
| 20260508010004 | 9 | 12 | 0.0 | 0.0 | 0.00 | 0.05 | 0.05 | 63 | 1008.5 |
| 20260508004504 | 9 | 12 | 0.0 | 0.0 | 0.00 | 0.05 | 0.05 | 62 | 1008.5 |
| 20260508003004 | 10 | 12 | 0.0 | 0.0 | 0.00 | 0.05 | 0.05 | 61 | 1008.4 |
| 20260508001505 | 10 | 12 | 0.0 | 0.0 | 0.00 | 0.05 | 0.05 | 59 | 1008.3 |
| 20260508000003 | 11 | 12 | 0.0 | 0.0 | 0.00 | 0.05 | 0.05 | 57 | 1008.2 |
| 20260507234502 | 11 | 12 | 0.0 | 0.0 | 0.00 | 0.05 | 0.05 | 52 | 1008.2 |
| 20260507233002 | 11 | 12 | 0.0 | 0.0 | 0.00 | 0.05 | 0.05 | 56 | 1008.0 |
| 20260507231501 | 12 | 12 | 0.0 | 0.0 | 0.00 | 0.05 | 0.05 | 48 | 1007.7 |
| 20260507230002 | 12 | 12 | 0.0 | 3.2 | 0.00 | 0.05 | 0.05 | 46 | 1007.9 |
| 20260507224601 | 12 | 12 | 0.0 | 4.8 | 0.00 | 0.08 | 0.05 | 44 | 1007.8 |
| 20260507223116 | 12 | 289 | 1.6 | 3.2 | 0.00 | 0.08 | 0.05 | 44 | 1007.8 |
| 20260507221559 | 12 | 296 | 0.0 | 4.8 | 0.00 | 0.08 | 0.05 | 43 | 1007.7 |
| 20260507220059 | 12 | 306 | 1.6 | 6.4 | 0.00 | 0.08 | 0.05 | 42 | 1007.8 |
| 20260507214603 | 12 | 260 | 1.6 | 6.4 | 0.00 | 0.08 | 0.05 | 43 | 1007.9 |
| 20260507213058 | 12 | 289 | 1.6 | 4.8 | 0.00 | 0.08 | 0.05 | 43 | 1007.9 |
| 20260507211603 | 13 | 250 | 0.0 | 4.8 | 0.00 | 0.08 | 0.05 | 42 | 1007.9 |
| 20260507210113 | 13 | 250 | 1.6 | 6.4 | 0.00 | 0.08 | 0.05 | 41 | 1007.7 |
| 20260507204555 | 13 | 265 | 1.6 | 4.8 | 0.00 | 0.08 | 0.05 | 41 | 1007.7 |
| 20260507203055 | 12 | 271 | 1.6 | 4.8 | 0.00 | 0.08 | 0.05 | 41 | 1007.7 |
| 20260507201558 | 12 | 288 | 1.6 | 6.4 | 0.00 | 0.08 | 0.05 | 42 | 1007.7 |
| 20260507200100 | 13 | 38 | 1.6 | 11.3 | 0.00 | 0.08 | 0.05 | 40 | 1007.8 |
| 20260507194559 | 15 | 252 | 3.2 | 11.3 | 0.00 | 0.08 | 0.05 | 38 | 1007.7 |
| 20260507193053 | 15 | 285 | 1.6 | 12.9 | 0.00 | 0.08 | 0.05 | 37 | 1008.0 |
| 20260507191553 | 15 | 236 | 3.2 | 12.9 | 0.00 | 0.08 | 0.05 | 36 | 1008.1 |
| 20260507190057 | 14 | 298 | 4.8 | 12.9 | 0.00 | 0.08 | 0.05 | 36 | 1008.3 |
| 20260507184549 | 14 | 309 | 3.2 | 11.3 | 0.00 | 0.10 | 0.05 | 38 | 1008.5 |
| 20260507183110 | 13 | 263 | 4.8 | 9.7 | 0.00 | 0.10 | 0.05 | 38 | 1008.7 |
| 20260507181551 | 13 | 289 | 1.6 | 9.7 | 0.00 | 0.10 | 0.05 | 41 | 1008.8 |
| 20260507180045 | 13 | 240 | 4.8 | 12.9 | 0.00 | 0.10 | 0.05 | 40 | 1008.9 |
| 20260507174550 | 12 | 310 | 4.8 | 8.0 | 0.00 | 0.25 | 0.05 | 43 | 1009.1 |
| 20260507173048 | 12 | 26 | 3.2 | 8.0 | 0.00 | 0.25 | 0.05 | 42 | 1009.3 |
| 20260507171542 | 13 | 321 | 3.2 | 12.9 | 0.00 | 0.25 | 0.05 | 44 | 1009.4 |
| 20260507170044 | 13 | 301 | 8.0 | 14.5 | 0.00 | 0.25 | 0.05 | 42 | 1009.5 |
| 20260507164555 | 12 | 319 | 4.8 | 9.7 | 0.00 | 0.36 | 0.05 | 42 | 1009.8 |
| 20260507163039 | 12 | 207 | 1.6 | 11.3 | 0.00 | 0.36 | 0.05 | 43 | 1009.9 |
| 20260507161550 | 12 | 18 | 3.2 | 14.5 | 0.00 | 0.36 | 0.05 | 42 | 1009.8 |
| 20260507160036 | 11 | 286 | 4.8 | 12.9 | 0.00 | 0.36 | 0.05 | 44 | 1010.2 |
| 20260507154636 | 11 | 304 | 3.2 | 12.9 | 0.00 | 0.66 | 0.05 | 45 | 1010.3 |
| 20260507153011 | 11 | 314 | 3.2 | 11.3 | 0.00 | 0.66 | 0.05 | 50 | 1010.6 |
| 20260507151508 | 10 | 184 | 4.8 | 11.3 | 0.00 | 0.66 | 0.05 | 48 | 1010.8 |
| 20260507150056 | 10 | 229 | 4.8 | 12.9 | 0.00 | 0.66 | 0.05 | 50 | 1010.9 |
| 20260507144553 | 10 | 284 | 4.8 | 11.3 | 0.00 | 0.84 | 0.05 | 52 | 1010.9 |
| 20260507143151 | 9 | 287 | 1.6 | 4.8 | 0.00 | 0.84 | 0.05 | 55 | 1011.0 |
| 20260507141549 | 8 | 301 | 3.2 | 8.0 | 0.00 | 0.84 | 0.05 | 55 | 1011.0 |
| 20260507140045 | 8 | 155 | 1.6 | 6.4 | 0.00 | 0.84 | 0.05 | 62 | 1011.1 |
| 20260507134542 | 7 | 294 | 3.2 | 11.3 | 0.00 | 1.04 | 0.05 | 62 | 1011.2 |
| 20260507133046 | 7 | 311 | 3.2 | 8.0 | 0.00 | 1.04 | 0.05 | 65 | 1011.3 |
| 20260507131540 | 7 | 335 | 1.6 | 4.8 | 0.00 | 1.04 | 0.05 | 67 | 1011.1 |
| 20260507130041 | 6 | 351 | 1.6 | 6.4 | 0.00 | 1.04 | 0.05 | 68 | 1011.0 |
| 20260507124539 | 6 | 324 | 0.0 | 6.4 | 0.00 | 1.12 | 0.05 | 73 | 1011.1 |
| 20260507123033 | 6 | 295 | 1.6 | 11.3 | 0.00 | 1.12 | 0.05 | 73 | 1010.8 |
| 20260507121531 | 5 | 12 | 0.0 | 8.0 | 0.00 | 1.12 | 0.05 | 77 | 1010.7 |
| 20260507120029 | 5 | 281 | 1.6 | 6.4 | 0.00 | 1.12 | 0.05 | 79 | 1010.6 |
| 20260507114544 | 5 | 304 | 3.2 | 6.4 | 0.00 | 1.14 | 0.05 | 80 | 1010.5 |
| 20260507113046 | 4 | 162 | 0.0 | 6.4 | 0.00 | 1.14 | 0.05 | 88 | 1010.4 |
| 20260507111532 | 4 | 221 | 0.0 | 6.4 | 0.00 | 1.14 | 0.05 | 89 | 1010.3 |
| 20260507110021 | 4 | 221 | 0.0 | 3.2 | 0.00 | 1.14 | 0.05 | 89 | 1010.2 |
| 20260507104519 | 4 | 221 | 1.6 | 4.8 | 0.00 | 1.14 | 0.05 | 89 | 1010.0 |
| 20260507103020 | 4 | 221 | 0.0 | 4.8 | 0.00 | 1.14 | 0.05 | 89 | 1009.6 |
| 20260507101517 | 5 | 221 | 0.0 | 3.2 | 0.00 | 1.14 | 0.05 | 88 | 1009.4 |
| 20260507100014 | 5 | 221 | 1.6 | 6.4 | 0.00 | 1.14 | 0.05 | 90 | 1009.3 |
| 20260507094511 | 5 | 292 | 0.0 | 4.8 | 0.00 | 1.14 | 0.05 | 90 | 1009.2 |
| 20260507093011 | 5 | 292 | 0.0 | 1.6 | 0.00 | 1.14 | 0.05 | 92 | 1009.0 |
| 20260507091509 | 5 | 292 | 0.0 | 0.0 | 0.00 | 1.14 | 0.05 | 91 | 1008.9 |
| 20260507090008 | 5 | 292 | 0.0 | 1.6 | 0.00 | 1.14 | 0.05 | 91 | 1009.0 |
| 20260507084508 | 5 | 292 | 0.0 | 0.0 | 0.00 | 1.14 | 0.05 | 90 | 1008.9 |
| 20260507083006 | 6 | 292 | 0.0 | 1.6 | 0.00 | 1.14 | 0.05 | 90 | 1008.9 |
| 20260507081507 | 6 | 292 | 1.6 | 3.2 | 0.00 | 1.14 | 0.05 | 89 | 1009.2 |
| 20260507080003 | 6 | 292 | 0.0 | 4.8 | 0.00 | 1.14 | 0.05 | 90 | 1009.3 |
| 20260507074500 | 6 | 292 | 3.2 | 4.8 | 0.00 | 1.14 | 0.05 | 90 | 1009.4 |
| 20260507073102 | 6 | 288 | 1.6 | 4.8 | 0.00 | 1.14 | 0.05 | 92 | 1009.4 |
| 20260507071557 | 6 | 288 | 0.0 | 0.0 | 0.00 | 1.14 | 0.05 | 93 | 1009.3 |
| 20260507070104 | 6 | 288 | 0.0 | 0.0 | 0.00 | 1.14 | 0.05 | 93 | 1009.5 |
| 20260507064555 | 6 | 288 | 0.0 | 1.6 | 0.03 | 1.14 | 0.05 | 93 | 1009.7 |
| 20260507063055 | 6 | 288 | 0.0 | 0.0 | 0.03 | 1.14 | 0.05 | 92 | 1009.3 |
| 20260507061554 | 6 | 288 | 0.0 | 3.2 | 0.03 | 1.14 | 0.05 | 92 | 1009.4 |
| 20260507060059 | 6 | 288 | 0.0 | 3.2 | 0.00 | 1.12 | 0.03 | 92 | 1009.3 |
| 20260507054554 | 6 | 288 | 0.0 | 1.6 | 0.00 | 1.12 | 0.03 | 92 | 1009.3 |
| 20260507053051 | 6 | 288 | 0.0 | 1.6 | 0.00 | 1.12 | 0.03 | 91 | 1009.1 |
| 20260507051549 | 6 | 288 | 0.0 | 3.2 | 0.03 | 1.12 | 0.03 | 91 | 1009.0 |
| 20260507050047 | 6 | 288 | 0.0 | 3.2 | 0.03 | 1.12 | 0.03 | 91 | 1008.7 |
| 20260507044557 | 7 | 288 | 1.6 | 3.2 | 0.03 | 1.12 | 0.03 | 90 | 1008.3 |
| 20260507043056 | 7 | 288 | 0.0 | 3.2 | 0.03 | 1.12 | 0.03 | 90 | 1008.4 |
| 20260507041540 | 7 | 288 | 0.0 | 3.2 | 0.00 | 1.09 | 0.00 | 89 | 1009.0 |
| 20260507040040 | 7 | 288 | 1.6 | 4.8 | 0.00 | 1.09 | 0.00 | 88 | 1009.0 |
| 20260507034538 | 7 | 288 | 1.6 | 3.2 | 0.00 | 1.09 | 1.09 | 89 | 1008.9 |
| 20260507033038 | 7 | 288 | 0.0 | 3.2 | 0.00 | 1.09 | 1.09 | 89 | 1008.7 |
| 20260507031534 | 7 | 288 | 0.0 | 6.4 | 0.00 | 1.09 | 1.09 | 88 | 1008.6 |
| 20260507030031 | 7 | 287 | 1.6 | 4.8 | 0.00 | 1.09 | 1.09 | 88 | 1008.3 |